Regional Weather Roundup
Issued by NWS Newport/Morehead, NC

Current Version | Previous Version | Graphics & Text | Print | Product List | Glossary Off
Versions: 1 2 3 4 5 6 7 8 9 10 11 12 13 14 15 16 17 18 19 20 21 22 23 24 25 26 27 28 29 30 31 32 33 34 35 36 37 38 39 40 41 42 43 44 45 46 47 48 49 50

000
ASUS42 KMHX 251410
RWRMHX
WEATHER ROUNDUP FOR EASTERN NORTH CAROLINA
NATIONAL WEATHER SERVICE NEWPORT/MOREHEAD CITY NC
1000 AM EDT FRI JUL 25 2014

NOTE: "FAIR" INDICATES FEW OR NO CLOUDS BELOW 12,000 FEET
WITH NO SIGNIFICANT WEATHER AND/OR OBSTRUCTIONS TO VISIBILITY

NCZ015>017-031-032-045>047-102-103-251500-
NORTH COAST

CITY           SKY/WX    TMP DP  RH WIND       PRES   REMARKS
EDENTON        MOSUNNY   75  69  82 N8        30.05R
ELIZABETH CITY SUNNY     77  67  71 N13       30.04R
KITTY HAWK     SUNNY     77  69  75 N7        30.02R
MANTEO         NOT AVBL

$$

NCZ045>047-081-094-103-104-251500-
CENTRAL COAST

CITY           SKY/WX    TMP DP  RH WIND       PRES   REMARKS
FRISCO         MOSUNNY   79  70  74 VRB6      30.02S
SWANQUARTER      N/A     77 N/A N/A N6        30.00S

$$

NCZ095-097-098-100-101-251500-
SOUTHERN COAST

CITY           SKY/WX    TMP DP  RH WIND       PRES   REMARKS
BEAUFORT       MOSUNNY   77  70  79 N8        30.03S
CEDAR ISLAND     N/A     77 N/A N/A N12       30.06S
JACKSONVILLE   CLOUDY    72  68  87 N8        30.05R
NEWPORT        NOT AVBL
PINEY ISLAND   MOSUNNY   73  71  93 N10       30.03S
WILMINGTON     CLOUDY    73  71  93 N6        30.03R


$$

NCZ011>013-027>030-043-044-078>080-089-090>093-098-251500-
COASTAL PLAIN

CITY           SKY/WX    TMP DP  RH WIND       PRES   REMARKS
AHOSKIE        SUNNY     74  65  74 N7        30.06S
CLINTON        MOSUNNY   74  69  85 NE6       30.06S
ELIZABETHTOWN  CLOUDY    71  69  90 CALM      30.04S
GOLDSBORO      CLOUDY    73  72  98 NE8       30.05R
GREENVILLE     PTSUNNY   75  70  83 NE5       30.07S
HAVELOCK       PTSUNNY   75  68  78 N5        30.05S
KENANSVILLE    PTSUNNY   72  67  83 N5        30.07R
KINSTON        CLOUDY    73  70  88 N6        30.07R
NEW BERN       PTSUNNY   76  69  79 N5        30.06R
RICHLANDS      CLOUDY    72  66  83 N8        30.05R
ROANOKE RAPIDS NOT AVBL
ROCKY MOUNT    CLOUDY    74  68  81 NE5       30.06S
WASHINGTON     PTSUNNY   72  68  86 N6        30.06S
WHITEVILLE     CLOUDY    72  70  95 N5        30.03S FOG

$$

AMZ130-135-150-152-154-156-158-170-250-252-270-ANZ085-086-088-633-658-670-251500-
MARINE OBSERVATIONS

STATION/POSITION TIME  TEMP    WIND        PRES    WAVE   SWELL
                       AIR SEA DIR/SP/G            HT/PER HT/PER
                 (UTC) (F)     (DEG/KT/KT) (MB)    (FT/S) (FT/S)
CHESAPEAKE LIGHT NOT AVBL
BUOY 44014       1400   76 78  350/ 12/ 14 1015.6    3/ 7   2/ 7
DUCK             1400   74 75  340/ 12/ 13 1016.0
2E DUCK          1400                        N/A     2/ 4
OREGON INLET     1400   77 77  360/ 10/ 13 1016.6
BUOY 44095       1400      77                N/A     3/ 7
20E OREGON INLET 1300          350/ 10/ 12   N/A
HATTERAS CG      1400   76 79   10/  9/ 12 1017.0
DIAMOND BUOY     1400          VRB 12/ 14  1016.2    3/ 7   2/ 7
CAPE LOOKOUT     1300   73      10/  9/ 11 1016.5
BEAUFORT LAB     1400   74 80   20/  8/ 11 1016.5
30 SE NEW RIVER  1400   75 81   30/ 14/ 16 1017.0    4/ 6   3/10
5 SE WRIGHTSVILL 1300   72 81   20/  8/ 10   N/A
BUOY 41002       1309   82 82  240/ 14/ 17 1019.4    5/ 6   2/ 7
BUOY 41004       1400   82 82  260/ 12/ 14 1016.1    4/ 6   3/ 6

$$



USA.gov is the U.S. government's official web portal to all federal, state and local government web resources and services.